Zurück zum Katalog

ATLAS D DEB

AktivLEO
NORAD 2329·DEBRIS·🇺🇸 United States

Gestartet Jul 14, 1966 von Vandenberg Space Force Base

Loading…

Nächste Überflüge (nächste 24 Stunden)

TLE

AktuellSource: Space-Track

Epoche: Sep 14, 2026, 15:11 UTC

1 02329U 66063D   26257.63323591  .00000742  00000-0  36334-3 0  9996
2 02329 144.2865 189.0161 0022946 146.4144  22.3958 13.92722364 34657

Verfolge ATLAS D DEB in Echtzeit mit AllMySat

Download on the App Store